RESURS O1 DEB

Satellite information

Favourite Embed

Satellite Type and Status

DEBRISIN ORBIT

Key statistics

Satellite RESURS O1 DEB at a glance.

Uptime

11258

Days in orbit

Revolutions

≈ 14.6

Per day

Orbit

SSO

Sun Synchronous Orbit

Inclination

97.9

Latest

Satellite identification and parameters

Extended collection of information and parameters for RESURS O1 DEB.

Object identification

Identified? True

Debris? True

Object name: RESURS O1 DEB

International designator: 1994-074F

Object number (NORAD): 23347

Object ID (CCSDS): 23347

Country: COMMONWEALTH OF INDEPENDENT STATES (CIS)

Current information (Y/N): Y

RCS size: SMALL

Orbital parameters

Period: 98.848 minutes

Inclination: 97.8535 deg

SMA: 7081.698 km

Apoapsis: 790.706 km

Periapsis: 616.421 km

RAAN: 319.9976 deg

Eccentricy: 0.01230532

Argument of periapsis: 350.3988 deg

Mean anomaly: 187.3146 deg

Mean motion: 14.5678887 rev/day

Mean motion (dot): 0.0000141 rev/day2

B* drag term: 0.00029399839 1/REarth

Two-line elements (TLE)

Creation date: Aug. 31, 2025, 2:26 a.m.

Reference frame: TEME

Reference center: EARTH

Epoch: Aug. 30, 2025, 11:03 p.m. UTC

TLE line 0: 0 RESURS O1 DEB

TLE line 1: 1 23347U 94074F 25242.96083023 .00001410 00000-0 29400-3 0 9993

TLE line 2: 2 23347 97.8535 319.9976 0123053 350.3988 187.3146 14.56788870627797

Live tracking on map

Real-time ground track for satellite RESURS O1 DEB.

In-orbit conjunctions

A list of the most updated potential collisions computed for object RESURS O1 DEB.

Target Orbit TCA Probability of collision Miss distance Type
IRIDIUM 4 LEO 2024-09-06 07:27:54 0.001060241 262.0 (m) PAYLOAD

Associated space launch

Resurs-O1 N3 or Resurs-O1 1 is the third earth observation satellite in the Russian Resurs-O1 program.

RESURS O1 DEB was lifted into orbit during the mission ‘Zenit-2 | Resurs-O1’, on board a Zenit-2 space rocket.

The launch took place on Nov. 4, 1994, 5:47 a.m. from 45/1.

For more information about the launch, click the button.

Launch to space Zenit-2 | Resurs-O1
Zenit-2 | Resurs-O1

Agency: N/A

Status: Launch Successful

Launch date: Nov. 4, 1994, 5:47 a.m. UTC

Rocket: Zenit-2

Launch pad: 45/1

Location: Baikonur Cosmodrome, Republic of Kazakhstan

...

Latest news about this satellite

There are no fresh news available about this satellite. Check back as we update our databases every day.


Newsletter sign-up

Weekly statistics, charts and insights to help you stay on top of the space industry.